| time (UTC) | temp F | wind direction | speed MPH | gust MPH | rain 1hr in | rain 24hr in | rain mn in | humidity % | barometer mb |
| 20260504000016 | 67 | 285 | 2.0 | 5.0 | 0.00 | 0.28 | 0.28 | 51 | 1006.8 |
| 20260503235016 | 67 | 291 | 3.0 | 7.0 | 0.00 | 0.28 | 0.28 | 51 | 1006.8 |
| 20260503234036 | 68 | 283 | 3.0 | 10.0 | 0.00 | 0.28 | 0.28 | 49 | 1006.7 |
| 20260503233017 | 68 | 285 | 5.0 | 11.0 | 0.00 | 0.28 | 0.28 | 48 | 1006.7 |
| 20260503232017 | 69 | 292 | 4.0 | 7.0 | 0.00 | 0.28 | 0.28 | 48 | 1006.7 |
| 20260503231017 | 69 | 280 | 4.0 | 9.0 | 0.00 | 0.28 | 0.28 | 47 | 1006.8 |
| 20260503230017 | 69 | 288 | 4.0 | 11.0 | 0.00 | 0.28 | 0.28 | 47 | 1006.9 |
| 20260503225037 | 69 | 291 | 4.0 | 10.0 | 0.00 | 0.28 | 0.28 | 48 | 1007.0 |
| 20260503224017 | 67 | 270 | 2.0 | 6.0 | 0.00 | 0.28 | 0.28 | 49 | 1007.1 |
| 20260503223017 | 66 | 275 | 2.0 | 5.0 | 0.00 | 0.28 | 0.28 | 50 | 1007.2 |
| 20260503222018 | 66 | 274 | 2.0 | 5.0 | 0.00 | 0.28 | 0.28 | 50 | 1007.3 |
| 20260503221017 | 66 | 222 | 1.0 | 6.0 | 0.00 | 0.28 | 0.28 | 49 | 1007.4 |
| 20260503220018 | 66 | 263 | 2.0 | 11.0 | 0.00 | 0.28 | 0.28 | 49 | 1007.5 |
| 20260503215059 | 67 | 249 | 2.0 | 6.0 | 0.00 | 0.28 | 0.28 | 48 | 1007.5 |
| 20260503214015 | 67 | 271 | 3.0 | 7.0 | 0.00 | 0.28 | 0.28 | 47 | 1007.7 |
| 20260503213016 | 67 | 266 | 2.0 | 7.0 | 0.00 | 0.28 | 0.28 | 48 | 1007.8 |
| 20260503212016 | 67 | 257 | 3.0 | 6.0 | 0.00 | 0.28 | 0.28 | 47 | 1008.0 |
| 20260503211016 | 66 | 285 | 3.0 | 5.0 | 0.00 | 0.28 | 0.28 | 48 | 1008.2 |
| 20260503210016 | 65 | 282 | 2.0 | 6.0 | 0.00 | 0.28 | 0.28 | 49 | 1008.4 |
| 20260503205037 | 65 | 274 | 2.0 | 6.0 | 0.00 | 0.28 | 0.28 | 48 | 1008.5 |
| 20260503204016 | 65 | 269 | 3.0 | 7.0 | 0.00 | 0.28 | 0.28 | 47 | 1008.6 |
| 20260503203017 | 64 | 270 | 4.0 | 10.0 | 0.00 | 0.28 | 0.28 | 47 | 1008.8 |
| 20260503202017 | 65 | 275 | 3.0 | 7.0 | 0.00 | 0.28 | 0.28 | 47 | 1009.0 |
| 20260503201017 | 65 | 275 | 3.0 | 8.0 | 0.00 | 0.28 | 0.28 | 47 | 1009.0 |
| 20260503200017 | 64 | 267 | 3.0 | 9.0 | 0.00 | 0.28 | 0.28 | 48 | 1009.1 |
| 20260503195058 | 65 | 259 | 4.0 | 10.0 | 0.00 | 0.28 | 0.28 | 47 | 1009.2 |
| 20260503194018 | 66 | 258 | 4.0 | 9.0 | 0.00 | 0.28 | 0.28 | 47 | 1009.4 |
| 20260503193018 | 65 | 269 | 2.0 | 7.0 | 0.00 | 0.28 | 0.28 | 49 | 1009.6 |
| 20260503192018 | 64 | 257 | 2.0 | 6.0 | 0.00 | 0.28 | 0.28 | 51 | 1009.7 |
| 20260503191018 | 64 | 259 | 3.0 | 9.0 | 0.00 | 0.28 | 0.28 | 52 | 1009.9 |
| 20260503190015 | 63 | 250 | 2.0 | 6.0 | 0.00 | 0.28 | 0.28 | 55 | 1010.1 |
| 20260503185016 | 62 | 257 | 2.0 | 7.0 | 0.00 | 0.28 | 0.28 | 56 | 1010.3 |
| 20260503184016 | 61 | 245 | 3.0 | 10.0 | 0.00 | 0.28 | 0.28 | 60 | 1010.6 |
| 20260503183015 | 59 | 349 | 1.0 | 5.0 | 0.00 | 0.28 | 0.28 | 67 | 1010.8 |
| 20260503182016 | 57 | 64 | 2.0 | 5.0 | 0.00 | 0.28 | 0.28 | 70 | 1011.0 |
| 20260503181025 | 54 | 172 | 2.0 | 5.0 | 0.00 | 0.28 | 0.28 | 75 | 1011.4 |
| 20260503180026 | 52 | 281 | 1.0 | 3.0 | 0.03 | 0.28 | 0.28 | 76 | 1011.7 |
| 20260503175026 | 51 | 102 | 1.0 | 4.0 | 0.03 | 0.28 | 0.28 | 78 | 1012.2 |
| 20260503174026 | 51 | 298 | 1.0 | 3.0 | 0.04 | 0.28 | 0.28 | 77 | 1012.7 |
| 20260503173028 | 51 | 16 | 1.0 | 3.0 | 0.05 | 0.28 | 0.28 | 80 | 1013.3 |
| 20260503172026 | 51 | 48 | 1.0 | 2.0 | 0.05 | 0.28 | 0.28 | 82 | 1013.5 |
| 20260503171026 | 51 | 106 | 1.0 | 3.0 | 0.05 | 0.27 | 0.27 | 81 | 1013.5 |
| 20260503131016 | 50 | 52 | 2.0 | 3.0 | 0.00 | 0.00 | 0.00 | 64 | 1015.1 |
| 20260503081021 | 42 | 51 | 1.0 | 2.0 | 0.00 | 0.00 | 0.00 | 71 | 1015.4 |
| 20260503072022 | 42 | 47 | 1.0 | 2.0 | 0.00 | 0.00 | 0.00 | 69 | 1015.3 |
| 20260503071016 | 43 | 241 | 2.0 | 6.0 | 0.00 | 0.00 | 0.00 | 68 | 1015.4 |
| 20260503055017 | 44 | 2 | 2.0 | 6.0 | 0.00 | 0.00 | 0.00 | 65 | 1016.1 |
| 20260503054017 | 44 | 264 | 2.0 | 7.0 | 0.00 | 0.00 | 0.00 | 65 | 1016.1 |
| 20260503053017 | 44 | 281 | 2.0 | 8.0 | 0.00 | 0.00 | 0.00 | 65 | 1016.2 |
| 20260503052017 | 44 | 315 | 2.0 | 8.0 | 0.00 | 0.00 | 0.00 | 66 | 1016.3 |
| 20260503051023 | 43 | 266 | 2.0 | 5.0 | 0.00 | 0.00 | 0.00 | 67 | 1016.3 |
| 20260503050023 | 43 | 32 | 2.0 | 5.0 | 0.00 | 0.00 | 0.00 | 67 | 1016.4 |
| 20260503045017 | 43 | 310 | 1.0 | 5.0 | 0.00 | 0.00 | 0.00 | 66 | 1016.4 |
| 20260503044018 | 43 | 19 | 0.0 | 3.0 | 0.00 | 0.00 | 0.00 | 66 | 1016.5 |
| 20260503043023 | 43 | 42 | 1.0 | 2.0 | 0.00 | 0.00 | 0.00 | 66 | 1016.4 |
| 20260503042104 | 43 | 55 | 0.0 | 3.0 | 0.00 | 0.00 | 0.00 | 66 | 1016.5 |
| 20260503041016 | 43 | 246 | 0.0 | 4.0 | 0.00 | 0.00 | 0.00 | 65 | 1016.5 |
| 20260503040016 | 43 | 133 | 0.0 | 7.0 | 0.00 | 0.00 | 0.00 | 65 | 1016.5 |
| 20260503035016 | 43 | 77 | 0.0 | 2.0 | 0.00 | 0.00 | 0.00 | 66 | 1016.5 |
| 20260503034016 | 44 | 360 | 0.0 | 3.0 | 0.00 | 0.00 | 0.00 | 65 | 1016.6 |
| 20260503033016 | 44 | 67 | 0.0 | 4.0 | 0.00 | 0.00 | 0.00 | 64 | 1016.5 |
| 20260503032016 | 45 | 37 | 0.0 | 3.0 | 0.00 | 0.00 | 0.00 | 63 | 1016.6 |
| 20260503031016 | 46 | 67 | 0.0 | 3.0 | 0.00 | 0.00 | 0.00 | 61 | 1016.6 |
| 20260503030038 | 46 | 49 | 0.0 | 2.0 | 0.00 | 0.00 | 0.00 | 59 | 1016.7 |
| 20260503025037 | 47 | 98 | 0.0 | 2.0 | 0.00 | 0.00 | 0.00 | 58 | 1016.7 |
| 20260503024017 | 47 | 61 | 0.0 | 2.0 | 0.00 | 0.00 | 0.00 | 58 | 1016.7 |
| 20260503023017 | 46 | 343 | 0.0 | 2.0 | 0.00 | 0.00 | 0.00 | 59 | 1016.6 |
| 20260503022017 | 47 | 75 | 0.0 | 2.0 | 0.00 | 0.00 | 0.00 | 60 | 1016.6 |
| 20260503021017 | 47 | 17 | 0.0 | 2.0 | 0.00 | 0.00 | 0.00 | 59 | 1016.6 |
| 20260503020038 | 47 | 7 | 0.0 | 1.0 | 0.00 | 0.00 | 0.00 | 59 | 1016.6 |
| 20260503015018 | 48 | 3 | 0.0 | 1.0 | 0.00 | 0.00 | 0.00 | 59 | 1016.6 |
| 20260503014018 | 48 | 0.0 | 0.0 | 0.00 | 0.00 | 0.00 | 57 | 1016.5 | |
| 20260503013017 | 49 | 117 | 0.0 | 0.0 | 0.00 | 0.00 | 0.00 | 55 | 1016.4 |
| 20260503012015 | 50 | 199 | 0.0 | 0.0 | 0.00 | 0.00 | 0.00 | 54 | 1016.3 |
| 20260503011016 | 51 | 0.0 | 0.0 | 0.00 | 0.00 | 0.00 | 52 | 1016.3 | |
| 20260503010018 | 52 | 71 | 0.0 | 1.0 | 0.00 | 0.00 | 0.00 | 50 | 1016.3 |
| 20260503005016 | 53 | 0.0 | 0.0 | 0.00 | 0.00 | 0.00 | 48 | 1016.4 | |
| 20260503004016 | 53 | 312 | 1.0 | 2.0 | 0.00 | 0.00 | 0.00 | 46 | 1016.4 |
| 20260503003017 | 54 | 320 | 2.0 | 3.0 | 0.00 | 0.00 | 0.00 | 45 | 1016.4 |
| 20260503002017 | 54 | 318 | 2.0 | 4.0 | 0.00 | 0.00 | 0.00 | 44 | 1016.4 |
| 20260503001016 | 55 | 318 | 2.0 | 5.0 | 0.00 | 0.00 | 0.00 | 43 | 1016.5 |